Back to catalog

SL-16 DEB

AliveLEO
NORAD 22474·DEBRIS·🇷🇺 Russia

Launched Dec 25, 1992 from Baikonur Cosmodrome

Loading…

Next Passes (next 24 hours)

TLE

FreshSource: Space-Track

Epoch: Sep 14, 2026, 11:27 UTC

1 22474U 92093FP  26257.47760740  .00002415  00000-0  11067-2 0  9998
2 22474  71.2970  76.2664 0145197   7.9784 352.3601 14.16855515702987

Track SL-16 DEB in real time with AllMySat

Download on the App Store